If you wish to contribute or participate in the discussions about articles you are invited to join SKYbrary as a registered user

 Actions

Coronel FAP Francisco Secada Vignetta International Airport

From SKYbrary Wiki

SPQT
Airport
ICAO: SPQT – IATA: IQT
Summary
Name Coronel FAP Francisco Secada Vignetta International Airport
Region South America and Caribbean
Territory Peru PE.gif
Location Iquitos, Loreto
Serving Iquitos
Elevation 93.269 m
306 ft
306 ft93.269 m
Type medium airport
Coordinates 3° 47' 5.06" S, 73° 18' 31.70" W
Runways
Designator Length Width Surface ROPS
6/24 2500 m8,202.1 ft
45 m147.638 ft
CON /


METAR
Observation SPQT 202000Z 28008KT 250V330 9999 VCSH BKN018 FEW020TCU 33/24 Q1007 NOSIG RMK TCU E BIRD HAZARD RWY 06/24 PP000
Station Iquitos
Date/Time 20 February 2020 20:00:00
Wind direction 280°
Wind speed 08 kts
Lowest cloud amount broken clouds
Temperature 33°C
Dew point 24°C
Humidity 59%
QNH 1007 hPa
Weather condition in vicinity: showers

airport serving Iquitos, capital of Loreto Region and Peru's fifth largest city. Iquitos and Pucallpa are the main air hubs in the Peruvian Amazon.

Climatology

Equatorial climate (Köppen climate classification Af).

Maps

Terrain

Loading map...

Airport Layout

Loading map...


Accidents & Serious Incidents at or in vicinity of SPQT

None on SKYbrary